George, South Africa

3:39 AM SAST on December 11, 2017 (GMT +0200)
George

Weather History for FAGG - May, 2014

Change the Weather History Date:

Sunday, May 18, 2014

  Actual Average Record
Temperature  
Mean Temperature 54 °F -  
Max Temperature 63 °F 66 °F 87 °F (2001)
Min Temperature 44 °F 47 °F 43 °F (2013)
Degree Days  
Heating Degree Days 12    
Growing Degree Days 4 (Base 50)    
Moisture  
Dew Point 48 °F    
Average Humidity 72    
Maximum Humidity 88    
Minimum Humidity 50    
Precipitation  
Precipitation 0.00 in - - ()
Sea Level Pressure  
Sea Level Pressure 30.28 in    
Wind  
Wind Speed 5 mph ()    
Max Wind Speed 10 mph    
Max Gust Speed -    
Visibility 10.2 miles    
Events      
Averages and records for this station are not official NWS values.
T = Trace of Precipitation, MM = Missing Value Source: Averaged Metar Reports

Daily Weather History Graph

Daily Weather History Graph

Search for Another Location

Airport or City:

Trip Planner

Search our weather history database for the weather conditions in past years. The results will help you decide how hot, cold, wet, or windy it might be!

Date:

Astronomy

May. 18, 2014 Rise Set
Actual Time 7:17 AM SAST 5:35 PM SAST
Civil Twilight 6:51 AM SAST 6:02 PM SAST
Nautical Twilight 6:20 AM SAST 6:32 PM SAST
Astronomical Twilight 5:50 AM SAST 7:02 PM SAST
Moon 9:27 PM SAST (5/18) 10:36 AM SAST (5/18)
Length of Visible Light 11h 11m
Length of Day
10h 17m
Waning Gibbous, 83% of the Moon is Illuminated
May 18
Waning Gibbous
May 21
Last Quarter
May 28
New
Jun 5
First Quarter
Jun 13
Full

Hourly Weather History & Observations

Time (SAST) Temp. Dew Point Humidity Pressure Visibility Wind Dir Wind Speed Gust Speed Precip Events Conditions
2:00 AM 47 °F 42 °F 76% 30.39 in 12 mi 3.5 mph - -  
5:00 AM 49 °F 44 °F 79% 30.37 in 12 mi ENE 4.6 mph - -  
6:00 AM 48.2 °F 42.8 °F 82% 30.33 in - Variable 2.3 mph - N/A   Clear
7:00 AM 48.2 °F 42.8 °F 82% 30.33 in - Variable 2.3 mph - N/A   Clear
8:00 AM 45 °F 42 °F 85% 30.37 in 12 mi NNW 3.5 mph - -  
9:00 AM 53.6 °F 48.2 °F 82% 30.33 in - ENE 3.5 mph - N/A   Clear
10:00 AM 59.0 °F 48.2 °F 67% 30.33 in - East 4.6 mph - N/A   Clear
11:00 AM 62 °F 48 °F 50% 30.34 in 19 mi SE 9.2 mph - -  
11:00 AM 62.6 °F 48.2 °F 59% 30.33 in - ESE 9.2 mph - N/A   Clear
12:00 PM 62.6 °F 46.4 °F 55% 30.30 in - ESE 10.4 mph - N/A   Clear
1:00 PM 62.6 °F 48.2 °F 59% 30.27 in 6.2 mi ESE 10.4 mph - N/A   Partly Cloudy
2:00 PM 63 °F 51 °F 56% 30.26 in 12 mi East 9.2 mph - -   Scattered Clouds
2:00 PM 62.6 °F 50.0 °F 63% 30.24 in 6.2 mi ESE 10.4 mph - N/A   Partly Cloudy
3:00 PM 62.6 °F 51.8 °F 68% 30.24 in 6.2 mi ESE 8.1 mph - N/A   Partly Cloudy
4:00 PM 62.6 °F 51.8 °F 68% 30.21 in 6.2 mi ESE 8.1 mph - N/A   Partly Cloudy
5:00 PM 60 °F 51 °F 65% 30.22 in 12 mi East 8.1 mph - -   Scattered Clouds
5:00 PM 60.8 °F 51.8 °F 72% 30.21 in 6.2 mi East 5.8 mph - N/A   Partly Cloudy
6:00 PM 57.2 °F 51.8 °F 82% 30.21 in - East 6.9 mph - N/A   Clear
7:00 PM 55.4 °F 51.8 °F 88% 30.21 in - North 3.5 mph - N/A   Clear
8:00 PM 54 °F 50 °F 82% 30.23 in 12 mi ENE 3.5 mph - -  
8:00 PM 53.6 °F 48.2 °F 82% 30.21 in - Variable 1.2 mph - N/A   Clear